Le nostre stazioni meteo in Italia

Pubblicità
Il mio iltempo24.it
Marina Di Ginosa, Italia (16325): Temperatura & dewpoint: 16.10.2018 09:00:00 - 22.10.2018 09:00:00 (CEST)Marina Di Ginosa, Italia (16325): velocità del vento: 16.10.2018 09:00:00 - 22.10.2018 09:00:00 (CEST)Marina Di Ginosa, Italia (16325): direzione del vento: 16.10.2018 09:00:00 - 22.10.2018 09:00:00 (CEST)Marina Di Ginosa, Italia (16325): reduced air pressure: 16.10.2018 09:00:00 - 22.10.2018 09:00:00 (CEST)Marina Di Ginosa, Italia (16325): visibility: 16.10.2018 09:00:00 - 22.10.2018 09:00:00 (CEST)
Data & Tempo tt [°C] td [°C] ff [km/h] ff [kn] dd ppp [hPa] vv [km]
22.10.2018 09:00:00 - - - - - - -
22.10.2018 08:00:00 16,8 16,2 13 7 SSO 1011,4 10
22.10.2018 07:00:00 - - - - - - -
22.10.2018 06:00:00 - - - - - - -
22.10.2018 05:00:00 - - - - - - -
22.10.2018 04:00:00 20,0 15,0 8 4 NO - 10
22.10.2018 03:00:00 18,0 14,0 5 3 NNO - 10
22.10.2018 02:00:00 17,2 14,7 5 3 NNO 1014,4 10
22.10.2018 01:00:00 17,0 15,0 8 4 N - 10
22.10.2018 00:00:00 17,0 15,0 5 3 N - 10
21.10.2018 23:00:00 17,2 15,4 8 4 NNO 1015,1 10
21.10.2018 22:00:00 17,0 16,0 9 5 NNE - 10
21.10.2018 21:00:00 17,0 16,0 11 6 N - 8
21.10.2018 20:00:00 17,4 15,7 4 2 N 1014,6 7
21.10.2018 19:00:00 18,0 17,0 8 4 NNO - 9
21.10.2018 18:00:00 19,0 16,0 9 5 NNO - 8
21.10.2018 17:00:00 19,0 16,4 9 5 N 1014,6 6
21.10.2018 16:00:00 24,0 13,0 9 5 N - 10
21.10.2018 15:00:00 24,0 12,0 9 5 NO - 10
21.10.2018 14:00:00 24,2 14,3 4 2 N 1015,0 10
21.10.2018 13:00:00 24,0 14,0 5 3 - - 10
21.10.2018 12:00:00 23,0 15,0 0 0 N - 10
21.10.2018 11:00:00 21,2 14,8 5 3 NO 1017,2 10
21.10.2018 10:00:00 20,0 15,0 8 4 NO - 10
21.10.2018 09:00:00 18,0 15,0 4 2 ONO - 10
21.10.2018 08:00:00 15,8 13,8 4 2 ONO 1017,4 10
21.10.2018 07:00:00 15,0 13,0 5 3 ONO - 10
21.10.2018 06:00:00 16,0 14,0 5 3 NO - 10
21.10.2018 05:00:00 16,2 14,0 9 5 ONO 1018,4 10
21.10.2018 04:00:00 16,0 14,0 5 3 NO - 10
21.10.2018 03:00:00 17,0 14,0 8 4 NO - 10
21.10.2018 02:00:00 17,0 14,5 5 3 ONO 1018,4 10
21.10.2018 01:00:00 17,0 14,0 5 3 NO - 10
21.10.2018 00:00:00 - - - - - - -
20.10.2018 23:00:00 17,2 14,3 5 3 ONO 1018,4 10
20.10.2018 22:00:00 18,0 15,0 8 4 NO - 10
20.10.2018 21:00:00 19,0 16,0 8 4 ONO - 10
20.10.2018 20:00:00 20,0 16,0 9 5 NNO 1018,1 18
20.10.2018 19:00:00 21,0 16,0 9 5 NNE - 10
20.10.2018 18:00:00 23,0 15,0 11 6 N - 10
20.10.2018 17:00:00 24,0 12,3 13 7 N 1017,4 18
20.10.2018 16:00:00 25,0 12,0 13 7 N - 10
20.10.2018 15:00:00 26,0 13,0 15 8 N - 10
20.10.2018 14:00:00 25,8 14,0 11 6 N 1018,3 18
20.10.2018 13:00:00 26,0 15,0 11 6 N - 10
20.10.2018 12:00:00 24,0 14,0 13 7 NNE - 10
20.10.2018 11:00:00 22,2 13,8 13 7 N 1018,3 18
20.10.2018 10:00:00 20,0 13,0 11 6 NNE - 10
20.10.2018 09:00:00 18,0 13,0 0 0 N - 10
20.10.2018 08:00:00 15,2 13,1 0 0 N 1017,6 12
20.10.2018 07:00:00 16,0 14,0 0 0 N - 10
20.10.2018 06:00:00 16,0 14,0 0 0 N - 10
20.10.2018 05:00:00 15,8 14,2 8 4 NO 1016,9 20
20.10.2018 04:00:00 16,0 14,0 0 0 N - 10
20.10.2018 03:00:00 16,0 14,0 0 0 N - 10
20.10.2018 02:00:00 16,0 14,4 8 4 NO 1017,5 15
20.10.2018 01:00:00 16,0 15,0 8 4 NNO - 10
20.10.2018 00:00:00 16,0 15,0 0 0 N - 10
19.10.2018 23:00:00 17,4 15,7 0 0 N 1016,6 20
19.10.2018 22:00:00 18,0 16,0 0 0 N - 10
19.10.2018 21:00:00 18,0 17,0 0 0 N - 10
19.10.2018 20:00:00 20,2 17,0 5 3 SSO 1015,4 10
19.10.2018 19:00:00 21,0 18,0 5 3 SSE - 10
19.10.2018 18:00:00 22,0 19,0 5 3 SSE - 10
19.10.2018 17:00:00 23,8 18,7 9 5 S 1015,2 10
19.10.2018 16:00:00 25,0 18,0 8 4 S - 10
19.10.2018 15:00:00 25,0 19,0 5 3 SSE - 10
19.10.2018 14:00:00 25,2 17,7 5 3 SSE 1015,5 10
19.10.2018 13:00:00 25,0 16,0 5 3 NNO - 10
19.10.2018 12:00:00 24,0 17,0 5 3 NNO - 10
19.10.2018 11:00:00 22,2 17,8 8 4 NNO 1015,4 10
19.10.2018 10:00:00 19,0 16,0 8 4 ONO - 10
19.10.2018 09:00:00 17,0 16,0 5 3 ONO - 10
19.10.2018 08:00:00 16,0 14,5 5 3 NO 1014,6 12
19.10.2018 07:00:00 16,0 15,0 5 3 ONO - 10
19.10.2018 06:00:00 16,0 15,0 4 2 ONO - 10
19.10.2018 05:00:00 16,6 15,5 8 4 NO 1014,5 10
19.10.2018 04:00:00 17,0 16,0 5 3 NO - 10
19.10.2018 03:00:00 17,0 16,0 5 3 ONO - 10
19.10.2018 02:00:00 17,0 16,0 5 3 NO 1014,4 15
19.10.2018 01:00:00 17,0 16,0 4 2 NO - 10
19.10.2018 00:00:00 18,0 16,0 4 2 NNO - 10
18.10.2018 23:00:00 18,8 17,1 8 4 NO 1014,1 20
18.10.2018 22:00:00 18,0 17,0 5 3 ONO - 10
18.10.2018 21:00:00 18,0 16,0 5 3 O - 10
18.10.2018 20:00:00 17,8 16,1 0 0 N 1013,7 20
18.10.2018 19:00:00 19,0 17,0 0 0 N - 10
18.10.2018 18:00:00 20,0 18,0 0 0 N - 10
18.10.2018 17:00:00 23,0 16,8 0 0 N 1012,5 20
18.10.2018 16:00:00 24,0 17,0 5 3 S - 10
18.10.2018 15:00:00 24,0 18,0 8 4 S - 10
18.10.2018 14:00:00 22,8 17,0 0 0 N 1013,3 20
18.10.2018 13:00:00 25,0 16,0 8 4 S - 10
18.10.2018 12:00:00 24,0 15,0 0 0 N - 10
18.10.2018 11:00:00 22,4 16,0 0 0 N 1014,3 10
18.10.2018 10:00:00 20,0 17,0 0 0 N - 8
18.10.2018 09:00:00 18,0 16,0 0 0 N - 8
18.10.2018 08:00:00 17,0 16,0 0 0 N 1014,2 4,0
18.10.2018 07:00:00 17,0 16,0 0 0 N - 6
18.10.2018 06:00:00 17,0 16,0 0 0 N - 10
18.10.2018 05:00:00 16,8 16,0 0 0 N 1014,2 15
18.10.2018 04:00:00 17,0 16,0 0 0 N - 10
18.10.2018 03:00:00 17,0 16,0 0 0 N - 10
18.10.2018 02:00:00 17,4 16,3 0 0 N 1015,0 15
18.10.2018 01:00:00 19,0 17,0 0 0 N - 10
18.10.2018 00:00:00 19,0 17,0 0 0 N - 10
17.10.2018 23:00:00 19,4 17,7 0 0 N 1015,4 20
17.10.2018 22:00:00 20,0 18,0 0 0 N - 10
17.10.2018 21:00:00 20,0 18,0 0 0 N - 10
17.10.2018 20:00:00 20,2 18,5 8 4 S 1014,8 15
17.10.2018 19:00:00 21,0 19,0 9 5 S - 10
17.10.2018 18:00:00 22,0 19,0 11 6 SSE - 10
17.10.2018 17:00:00 23,0 19,2 13 7 SSE 1014,6 20
17.10.2018 16:00:00 24,0 20,0 18 10 SSE - 10
17.10.2018 15:00:00 25,0 19,0 15 8 S - 10
17.10.2018 14:00:00 24,0 18,7 16 9 SSE 1016,1 20
17.10.2018 13:00:00 25,0 19,0 24 13 SSE - 10
17.10.2018 12:00:00 24,0 19,0 22 12 SE - 10
17.10.2018 11:00:00 23,6 18,5 21 11 SE 1016,9 18
17.10.2018 10:00:00 22,0 18,0 22 12 ESE - 10
17.10.2018 09:00:00 21,0 17,0 21 11 SE - 10
17.10.2018 08:00:00 - - - - - - -
17.10.2018 07:00:00 20,0 19,0 16 9 SSE - 10
17.10.2018 06:00:00 21,0 19,0 8 4 SE - 10
17.10.2018 05:00:00 20,4 18,7 9 5 ESE 1017,2 10
17.10.2018 04:00:00 21,0 19,0 9 5 SE - 10
17.10.2018 03:00:00 21,0 19,0 11 6 SE - 10
17.10.2018 02:00:00 21,0 19,3 13 7 ESE 1018,2 15
17.10.2018 01:00:00 21,0 19,0 11 6 ESE - 10
17.10.2018 00:00:00 21,0 18,0 13 7 SSE - 10
16.10.2018 23:00:00 21,8 19,2 13 7 SE 1018,3 15
16.10.2018 22:00:00 22,0 19,0 16 9 ESE - 10
16.10.2018 21:00:00 22,0 19,0 9 5 SE - 10
16.10.2018 20:00:00 21,8 19,2 9 5 SSE 1018,0 20
16.10.2018 19:00:00 22,0 19,0 11 6 SSE - 10
16.10.2018 18:00:00 22,0 19,0 9 5 SSE - 10
16.10.2018 17:00:00 23,0 19,2 15 8 SSE 1017,8 10
16.10.2018 16:00:00 24,0 20,0 11 6 SSE - 10
16.10.2018 15:00:00 23,0 19,0 11 6 SSE - 10
16.10.2018 14:00:00 22,8 19,0 15 8 S 1018,2 15
16.10.2018 13:00:00 23,0 18,0 15 8 SE - 8
16.10.2018 12:00:00 21,0 18,0 13 7 SSE - 8
16.10.2018 11:00:00 20,2 19,0 22 12 SE 1018,4 6
16.10.2018 10:00:00 22,0 18,0 18 10 ESE - 10
16.10.2018 09:00:00 20,0 18,0 24 13 ESE - 10

tt = Temperatura
td = dewpoint
ff = velocità del vento
dd = direzione del vento
ppp = reduced air pressure
vv = visibility

Stazioni seguenti

WeatherPro
AMSI
MeteoEarth